Los Angeles, CA

6:59 PM PST on November 20, 2017 (GMT -0800)
Los Angeles International

Weather History for KLAX - August, 2013

Change the Weather History Date:

Saturday, August 3, 2013

  Actual Average Record
Temperature  
Mean Temperature 69 °F 69 °F  
Max Temperature 74 °F 74 °F 85 °F (1971)
Min Temperature 63 °F 64 °F 55 °F (1944)
Degree Days  
Heating Degree Days 0 0  
Month to date heating degree days 0 0  
Since 1 June heating degree days 0 27  
Since 1 July heating degree days 0 2  
Cooling Degree Days 4 4  
Month to date cooling degree days 8 12  
Year to date cooling degree days 315 213  
Since 1 June cooling degree days 234 173  
Growing Degree Days 18 (Base 50)    
Moisture  
Dew Point 59 °F    
Average Humidity 76    
Maximum Humidity 90    
Minimum Humidity 61    
Precipitation  
Precipitation 0.00 in 0.00 in 0.04 in (1954)
Month to date precipitation T 0.00  
Year to date precipitation 2.64 8.84  
Since 1 July precipitation 0.03  
Sea Level Pressure  
Sea Level Pressure 29.97 in    
Wind  
Wind Speed 7 mph (West)    
Max Wind Speed 17 mph    
Max Gust Speed 22 mph    
Visibility 8 miles    
Events      
T = Trace of Precipitation, MM = Missing Value Source: NWS Daily Summary

Daily Weather History Graph

Daily Weather History Graph

Search for Another Location

Airport or City:

Trip Planner

Search our weather history database for the weather conditions in past years. The results will help you decide how hot, cold, wet, or windy it might be!

Date:

Astronomy

Aug. 03, 2013 Rise Set
Actual Time 6:06 AM PDT 7:52 PM PDT
Civil Twilight 5:39 AM PDT 8:19 PM PDT
Nautical Twilight 5:06 AM PDT 8:52 PM PDT
Astronomical Twilight 4:32 AM PDT 9:26 PM PDT
Moon 3:22 AM PDT (8/3) 5:36 PM PDT (8/3)
Length of Visible Light 14h 39m
Length of Day
13h 45m
Waning Crescent, 9% of the Moon is Illuminated
Aug 3
Waning Crescent
Aug 6
New
Aug 14
First Quarter
Aug 20
Full
Aug 28
Last Quarter

Hourly Weather History & Observations

Time (PDT) Temp. Dew Point Humidity Pressure Visibility Wind Dir Wind Speed Gust Speed Precip Events Conditions
12:53 AM 64.9 °F 59.0 °F 81% 29.97 in 10.0 mi Variable 4.6 mph - N/A   Overcast
1:53 AM 64.9 °F 59.0 °F 81% 29.96 in 9.0 mi Calm Calm - N/A   Overcast
2:53 AM 66.0 °F 59.0 °F 78% 29.95 in 8.0 mi Calm Calm - N/A   Overcast
3:53 AM 66.0 °F 59.0 °F 78% 29.95 in 8.0 mi Calm Calm - N/A   Overcast
4:53 AM 66.0 °F 59.0 °F 78% 29.95 in 8.0 mi Calm Calm - N/A   Overcast
5:53 AM 66.0 °F 59.0 °F 78% 29.96 in 8.0 mi Variable 3.5 mph - N/A   Overcast
6:53 AM 66.0 °F 59.0 °F 78% 29.97 in 6.0 mi SW 5.8 mph - N/A   Haze
7:32 AM 66.2 °F 59.0 °F 78% 29.98 in 6.0 mi WSW 6.9 mph - N/A   Haze
7:53 AM 66.0 °F 59.0 °F 78% 29.99 in 6.0 mi WSW 3.5 mph - N/A   Haze
8:53 AM 66.9 °F 59.0 °F 76% 30.00 in 6.0 mi Calm Calm - N/A   Haze
9:53 AM 68.0 °F 60.1 °F 76% 29.99 in 6.0 mi WSW 4.6 mph - N/A   Haze
10:53 AM 70.0 °F 60.1 °F 71% 30.00 in 7.0 mi West 6.9 mph - N/A   Mostly Cloudy
11:16 AM 71.6 °F 59.0 °F 64% 30.00 in 8.0 mi West 9.2 mph - N/A   Mostly Cloudy
11:53 AM 72.0 °F 59.0 °F 64% 29.99 in 8.0 mi West 10.4 mph - N/A   Scattered Clouds
12:53 PM 73.0 °F 60.1 °F 64% 29.99 in 8.0 mi West 11.5 mph 20.7 mph N/A   Scattered Clouds
1:53 PM 73.0 °F 59.0 °F 61% 29.98 in 8.0 mi West 11.5 mph - N/A   Scattered Clouds
2:53 PM 73.0 °F 60.1 °F 64% 29.96 in 8.0 mi WSW 12.7 mph - N/A   Scattered Clouds
3:53 PM 71.1 °F 60.1 °F 68% 29.95 in 10.0 mi West 15.0 mph 19.6 mph N/A   Mostly Cloudy
4:53 PM 70.0 °F 60.1 °F 71% 29.95 in 10.0 mi West 15.0 mph - N/A   Mostly Cloudy
5:53 PM 68.0 °F 59.0 °F 73% 29.94 in 8.0 mi West 12.7 mph - N/A   Mostly Cloudy
6:53 PM 64.9 °F 57.9 °F 78% 29.95 in 10.0 mi West 11.5 mph - N/A   Mostly Cloudy
7:32 PM 64.4 °F 59.0 °F 83% 29.95 in 10.0 mi West 11.5 mph - N/A   Mostly Cloudy
7:53 PM 64.0 °F 59.0 °F 84% 29.95 in 10.0 mi WSW 10.4 mph - N/A   Overcast
8:53 PM 64.0 °F 59.0 °F 84% 29.96 in 10.0 mi WSW 9.2 mph - N/A   Overcast
9:53 PM 64.0 °F 59.0 °F 84% 29.98 in 10.0 mi WSW 9.2 mph - N/A   Mostly Cloudy
10:53 PM 63.0 °F 59.0 °F 87% 29.98 in 10.0 mi West 4.6 mph - N/A   Mostly Cloudy
11:08 PM 62.6 °F 59.0 °F 88% 29.99 in 10.0 mi West 8.1 mph - N/A   Mostly Cloudy
11:53 PM 64.0 °F 57.9 °F 80% 29.98 in 10.0 mi West 6.9 mph - N/A   Overcast